Location: Godiavel Galaoual
(15.2485°N, 12.6604°W)
Time: 10:13:48
(UTC+00:00)

Okean 1-7 - Pass Details

Date: 27 February 2020
Orbit: 592 x 618 km, 82.5° (Epoch: 28 March)

Event Time Altitude Azimuth Distance (km) Brightness Sun altitude
Rises 20:26:57 0° 348° (NNW) 2,859 6.6 -22.2°
Reaches altitude 10° 20:29:11 10° 344° (NNW) 1,959 5.8 -22.8°
Maximum altitude 20:33:25 54° 267° (W) 745 3.7 -23.8°
Drops below altitude 10° 20:37:40 10° 190° (S) 1,968 5.8 -24.8°
Sets 20:39:55 0° 185° (S) 2,874 6.6 -25.4°
